Location: York
(31.8935°S, 116.7682°E)
Time: 17:41:44
(UTC+08:00)

deb Explorer IX - Pass Details

Date: 01 October 2022
Orbit: 533 x 1057 km, 38.8° (Epoch: 30 November)

Event Time Altitude Azimuth Distance (km) Brightness Sun altitude
Rises 20:04:31 0° 274° (W) 3,463 ? -23.6°
Reaches altitude 10° 20:07:21 10° 268° (W) 2,436 ? -24.1°
Maximum altitude 20:12:51 48° 194° (SSW) 972 ? -25.2°
Enters shadow 20:14:11 38° 153° (SSE) 1,086 ? -25.5°
Drops below altitude 10° 20:17:36 10° 120° (ESE) 2,096 - -26.1°
Sets 20:19:52 0° 113° (ESE) 2,936 - -26.6°
